ワイズ彗星

P/2010 P4 ( WISE )

English version
Home page
Updated on September 3, 2011

---------------------------------------------------------------------

・ プロフィール

発見日 2010年8月6日
発見光度
発見者 Wide Field Infrared Survey Explorer (NASA)

・ 写真集

・ 軌道要素

Epoch 2010 July 23.0 TT = JDT 2455400.5
T 2010 July 6.07909 TT                                  MPC
q   1.8564846            (2000.0)            P               Q
n   0.13829012     Peri.  354.24803     +0.99775552     +0.06507936
a   3.7034682      Node     2.21284     -0.03234683     +0.67459530
e   0.4987173      Incl.   24.10150     -0.05863115     +0.73531344
P   7.13
From 58 observations 2010 Aug. 6-2011 Jan. 2, mean residual 0".5.

・ 光度変化

        m1 = 16.0 + 5 logΔ + 10.0 log r

---------------------------------------------------------------------

軌道要素はM.P.E.C. 2011-A38に掲載されたものです。
光度グラフはComet for Windowsで作成したものです。

---------------------------------------------------------------------

Copyright(C) Seiichi Yoshida (comet@aerith.net). All rights reserved.